Weather History for KWYS - August, 2013

Change the Weather History Date:

Monday, August 12, 2013

  Actual Average Record
Temperature  
Mean Temperature 65 °F -  
Max Temperature 80 °F 76 °F 80 °F (2012)
Min Temperature 50 °F 40 °F 28 °F (2011)
Growing Degree Days 15 (Base 50)    
Moisture  
Dew Point 62 °F    
Average Humidity 85    
Maximum Humidity 89    
Minimum Humidity 82    
Precipitation  
Precipitation 0.00 in - - ()
Sea Level Pressure  
Sea Level Pressure 30.28 in    
Wind  
Wind Speed 4 mph (East)    
Max Wind Speed 16 mph    
Max Gust Speed 22 mph    
Visibility 10 miles    
Events Rain    
Averages and records for this station are not official NWS values.
T = Trace of Precipitation, MM = Missing Value Source: NWS Daily Summary

Daily Weather History Graph

Daily Weather History Graph

Search for Another Location

Airport or City:

Trip Planner

Search our weather history database for the weather conditions in past years. The results will help you decide how hot, cold, wet, or windy it might be!

Date:

Astronomy

Aug. 12, 2013 Rise Set
Actual Time 6:23 AM MDT 8:34 PM MDT
Civil Twilight 5:51 AM MDT 9:06 PM MDT
Nautical Twilight 5:11 AM MDT 9:45 PM MDT
Astronomical Twilight 4:27 AM MDT 10:29 PM MDT
Moon 12:35 PM MDT (8/12) 11:11 PM MDT (8/12)
Length of Visible Light 15h 14m
Length of Day
14h 10m
Waxing Crescent, 32% of the Moon is Illuminated
Aug 12
Waxing Crescent
Aug 14
First Quarter
Aug 20
Full
Aug 28
Last Quarter
Sep 5
New

Hourly Weather History & Observations

Time (MDT) Temp. Heat Index Dew Point Humidity Pressure Visibility Wind Dir Wind Speed Gust Speed Precip Events Conditions
9:50 AM 59.0 °F - 53.6 °F 82% 30.30 in 10.0 mi Calm Calm - N/A   Clear
10:10 AM 60.8 °F - 57.2 °F 88% 30.30 in 10.0 mi ENE 4.6 mph - N/A   Clear
10:25 AM 62.6 °F - 57.2 °F 82% 30.29 in 10.0 mi Calm Calm - N/A   Clear
10:30 AM 62.6 °F - 57.2 °F 82% 30.29 in 10.0 mi East 3.5 mph - N/A   Clear
10:50 AM 66.2 °F - 62.6 °F 88% 30.29 in 10.0 mi SE 3.5 mph - N/A   Clear
11:10 AM 68.0 °F - 64.4 °F 88% 30.29 in 10.0 mi Calm Calm - N/A   Clear
11:30 AM 69.8 °F - 66.2 °F 88% 30.28 in 10.0 mi Calm Calm - N/A   Clear
11:50 AM 73.4 °F - 68.0 °F 83% 30.27 in 10.0 mi Calm Calm - N/A   Clear
12:10 PM 75.2 °F - 71.6 °F 89% 30.27 in 10.0 mi NNE 3.5 mph - N/A   Clear
12:30 PM 77.0 °F - 73.4 °F 89% 30.25 in 10.0 mi South 10.4 mph 17.3 mph N/A   Clear
12:50 PM 78.8 °F - 73.4 °F 83% 30.24 in 10.0 mi ESE 3.5 mph - N/A   Clear
1:10 PM 80.6 °F 86.2 °F 75.2 °F 84% 30.24 in 10.0 mi West 4.6 mph - N/A   Mostly Cloudy
1:30 PM 78.8 °F - 73.4 °F 83% 30.23 in 10.0 mi Calm Calm - N/A   Scattered Clouds
1:50 PM 80.6 °F 86.2 °F 75.2 °F 84% 30.23 in 10.0 mi SW 9.2 mph - N/A   Partly Cloudy
2:10 PM 78.8 °F - 73.4 °F 83% 30.23 in 10.0 mi East 12.7 mph - N/A   Mostly Cloudy
2:30 PM 75.2 °F - 71.6 °F 89% 30.23 in 10.0 mi ESE 10.4 mph - N/A   Partly Cloudy
2:50 PM 75.2 °F - 71.6 °F 89% 30.24 in 5.0 mi SE 12.7 mph - N/A   Haze
3:10 PM 73.4 °F - 68.0 °F 83% 30.24 in 10.0 mi SE 12.7 mph 21.9 mph N/A   Mostly Cloudy
3:30 PM 73.4 °F - 68.0 °F 83% 30.26 in 10.0 mi SE 15.0 mph 18.4 mph N/A   Overcast
3:50 PM 71.6 °F - 66.2 °F 83% 30.28 in 10.0 mi SSW 16.1 mph 19.6 mph N/A   Mostly Cloudy
4:10 PM 69.8 °F - 66.2 °F 88% 30.30 in 10.0 mi West 9.2 mph 16.1 mph N/A   Mostly Cloudy
4:30 PM 66.2 °F - 60.8 °F 83% 30.31 in 10.0 mi Calm Calm - N/A Rain Light Rain
4:50 PM 64.4 °F - 59.0 °F 83% 30.33 in 10.0 mi NNE 5.8 mph - N/A   Partly Cloudy
5:10 PM 66.2 °F - 60.8 °F 83% 30.34 in 10.0 mi North 8.1 mph - N/A   Mostly Cloudy
5:30 PM 66.2 °F - 60.8 °F 83% 30.31 in 10.0 mi NE 13.8 mph 19.6 mph N/A   Partly Cloudy
5:50 PM 68.0 °F - 62.6 °F 83% 30.31 in 10.0 mi NE 11.5 mph 18.4 mph N/A   Clear
6:10 PM 66.2 °F - 62.6 °F 88% 30.29 in 10.0 mi NE 15.0 mph - N/A   Partly Cloudy
6:30 PM 68.0 °F - 62.6 °F 83% 30.29 in 10.0 mi NE 9.2 mph - N/A   Clear
6:50 PM 68.0 °F - 64.4 °F 88% 30.27 in 10.0 mi NNE 6.9 mph - N/A   Clear
7:10 PM 68.0 °F - 64.4 °F 88% 30.27 in 10.0 mi ESE 4.6 mph - N/A   Clear
7:30 PM 68.0 °F - 62.6 °F 83% 30.27 in 10.0 mi Calm Calm - N/A   Clear
7:50 PM 68.0 °F - 62.6 °F 83% 30.27 in 10.0 mi Calm Calm - N/A   Clear
8:10 PM 64.4 °F - 59.0 °F 83% 30.27 in 10.0 mi Calm Calm - N/A   Clear
8:30 PM 62.6 °F - 57.2 °F 82% 30.27 in 10.0 mi WNW 3.5 mph - N/A   Clear
8:50 PM 57.2 °F - 53.6 °F 88% 30.28 in 10.0 mi Calm Calm - N/A   Clear
9:10 PM 55.4 °F - 50.0 °F 82% 30.28 in 10.0 mi Calm Calm - N/A   Clear
9:30 PM 53.6 °F - 48.2 °F 82% 30.29 in 10.0 mi South 4.6 mph - N/A   Clear
9:50 PM 53.6 °F - 48.2 °F 82% 30.29 in 10.0 mi Calm Calm - N/A   Clear
10:10 PM 50.0 °F - 46.4 °F 87% 30.30 in 10.0 mi WNW 5.8 mph - N/A   Partly Cloudy
10:50 PM 53.6 °F - 48.2 °F 82% 30.31 in 10.0 mi Calm Calm - N/A   Mostly Cloudy
11:10 PM 51.8 °F - 48.2 °F 88% 30.31 in 10.0 mi Calm Calm - N/A   Scattered Clouds
11:30 PM 50.0 °F - 46.4 °F 87% 30.30 in 10.0 mi SE 6.9 mph - N/A   Mostly Cloudy
11:50 PM 50.0 °F - 44.6 °F 82% 30.31 in 10.0 mi Calm Calm - N/A   Partly Cloudy